Tracking 22441 objects as of 28-Feb-2021
HD Live streaming from Space Station
objects crossing your sky now

DELTA 1 DEB

Track DELTA 1 DEB now!
10-day predictions


NORAD ID: 42645
Int'l Code: 1975-052ME
Perigee: 1,101.5 km
Apogee: 1,515.9 km
Inclination: 99.7 °
Period: 111.6 minutes
Semi major axis: 7679 km
RCS: Unknown
Launch date: June 12, 1975
Source: United States (US)
Launch site: AIR FORCE WESTERN TEST RANGE (AFWTR)

Note: This is SATELLITE DEBRIS
aabbcc
Your satellite tracking list
Your tracking list is empty




NASA's NSSDC Master Catalog

Two Line Element Set (TLE):
1 42645U 75052ME  21059.05955654 -.00000075  00000-0 -12130-3 0  9990
2 42645  99.7329 167.4037 0269779 206.7419 329.4918 12.89994784213383
Source of the keplerian elements: AFSPC